{"data":{"norad_id":59785,"intl_designator":"2024-093D","name":"STARLINK-31890","alt_names":[],"object_type":"PAYLOAD","status":"ACTIVE","operator":null,"country":"US","launch_date":"2024-05-18","launch_site_code":"AFETR","launch_vehicle":null,"mission":null,"orbit_class":"UNKNOWN","rcs_meters":null,"size_class":null,"mass_kg":null,"dimensions":null,"purposes":["comms"],"wikipedia_slug":null,"has_3d_model":false,"image_url":null,"decayed_at":null,"tle_current":{"epoch":"2026-09-21T04:27:21.997728Z","epoch_age_seconds":115328,"freshness":"FRESH","line1":"1 59785U 24093D   26264.18567127  .00031006  00000+0  11373-2 0  9995","line2":"2 59785  43.0030 181.4094 0001193 304.9063  55.1677 15.27412831132632","mean_motion":15.27412831,"eccentricity":0.0001193,"inclination_deg":43.003,"raan_deg":181.4094,"arg_perigee_deg":304.9063,"mean_anomaly_deg":55.1677,"bstar":0.0011373,"rev_number":13263,"period_min":94.277065818364,"perigee_km":482.73110659372,"apogee_km":484.36830504172,"semimajor_km":6861.6867058177,"source":"CELESTRAK","updated_at":"2026-09-22T09:00:49.071743Z"}}}